Location: *
(58.4167°N, 22.5000°E)
Time: 15:37:12
(UTC+00:00)

Cosmos 405 Rocket - Pass Details

Date: 22 September 2019
Orbit: 491 x 554 km, 81.3° (Epoch: 19 October)

Event Time Altitude Azimuth Distance (km) Brightness Sun altitude
Rises 18:34:08 0° 203° (SSW) 2,568 6.2 -16.3°
Reaches altitude 10° 18:36:14 10° 207° (SSW) 1,694 5.3 -16.6°
Maximum altitude 18:39:55 61° 289° (WNW) 573 3.1 -17.0°
Drops below altitude 10° 18:43:40 10° 11° (N) 1,731 5.6 -17.4°
Sets 18:45:51 0° 15° (NNE) 2,630 6.5 -17.6°
